Погода в Бурге

Германия     52°16′04″N   11°50′53″E
темп.,
°C
ветер,
м/с
пор.,
м/с
влажн.,
%
обл.,
%
осадки,
мм/ч
давл.,
гПа
погр.,
м
16 мая, пн
пн1623:00+12всв347338 0.0 102042
02:00+10в22856 0.0 102025
05:00+9вюв348118 0.0 101960
08:00+14вюв366823 0.0 1019246
11:00+21вюв565015 0.0 1018879
14:00+24юв4545100 0.0 10171484
17:00+23ю2253100 0.0 10151370
20:00+18юв367593 0.1 1015156
17 мая, вт
вт1723:00+14ююз2290100 0.0 101821
02:00+14зсз3797100 0.1 1018240
05:00+14зсз2898100 0.6 1018339
08:00+15зсз4896100 1.8 1019524
11:00+15ссз479295 0.6 1021585
14:00+16ссв348372 0.8 1021596
17:00+18св3473100 0.0 1021638
20:00+15в3583100 0.0 1022287
18 мая, ср
ср1823:00+12вюв3787100 0.0 1023168
02:00+11вюв3687100 0.0 1023130
05:00+10вюв368873 0.0 1024107
08:00+14юв487112 0.0 1025364
11:00+19ююв56565 0.0 1025818
14:00+22ююв44525 0.0 10241210
17:00+23ююв335324 0.0 10231226
20:00+20ююв22715 0.0 102324
19 мая, чт
чт1923:00+16ююв348355 0.0 102357
02:00+14ююв348814 0.0 102261
05:00+14ююв349099 0.0 102267
08:00+18ююв3679100 0.0 1021187
11:00+24ю4659100 0.0 1020653
14:00+26ю5652100 0.0 10191251
17:00+26ююз4656100 0.0 10171510
20:00+23ююз3673100 0.0 1016120
20 мая, пт
пт2023:00+16з61690100 5.1 1018484
02:00+15з31195100 5.2 1018337
05:00+15з4109798 0.0 1019423
08:00+14зсз5890100 0.1 1021692
11:00+15зсз4579100 0.0 1022715
14:00+19з3357100 0.0 1021944
17:00+21зюз2349100 0.0 10191105
20:00+18юв116799 0.0 101711